Location: Chervonnoye
(48.6000°N, 34.4000°E)
Time: 15:07:36
(UTC+00:00)

ERS-2 - Pass Details

Date: 23 November 2020
Orbit: 492 x 498 km, 98.6° (Epoch: 28 January)

Event Time Altitude Azimuth Distance (km) Brightness Sun altitude
Exits shadow 14:40:51 - 43° (NE) 1,880 4.5 -7.7°
Reaches altitude 10° 14:41:24 10° 49° (NE) 1,711 4.2 -7.8°
Maximum altitude 14:44:00 18° 94° (E) 1,275 3.7 -8.2°
Drops below altitude 10° 14:46:36 10° 139° (SE) 1,701 4.6 -8.6°
Sets 14:49:10 0° 159° (SSE) 2,579 5.8 -9.0°
